STARLINK-32515

Last updated on Thu Nov 21 2024 00:02:05 GMT+0000 (Coordinated Universal Time)

1 61705U 24195U 24325.58335648 -.01435599 00000+0 -19962-1 0 9993 2 61705 53.1590 205.2301 0000760 94.0628 329.5298 15.59315635 4420
UTC large
Height (km)
Speed (km/s)
/
Latitude / Longitude
Inclination (degrees)
Orbital Period (minutes)
Azimuth
Elevation
Range (km)
Doppler Factor

Next 0 passes for location: London (51.5072 / 0.1276)

Sorry there are no passes over London.